FW4301 Weather Reports


Display with metric or nautical units.
time (UTC)temp
F
wind
direction
speed
MPH
gust
MPH
rain 1hr
in
rain 24hr
in
rain mn
in
humidity
%
barometer
mb
20260507180046 73 0 0.0 0.0 0.00 0.01 0.00 45 1017.8
20260507175529 73 0 0.0 0.0 0.00 0.01 0.00 45 1017.8
20260507175029 73 0 0.0 0.0 0.00 0.01 0.00 44 1017.8
20260507174549 73 0 0.0 0.0 0.00 0.01 0.00 44 1017.8
20260507174031 74 0 0.0 0.0 0.00 0.01 0.00 43 1017.9
20260507173533 74 0 0.0 0.0 0.00 0.01 0.00 43 1018.0
20260507173044 74 0 0.0 0.0 0.00 0.01 0.00 46 1018.0
20260507172530 74 0 0.0 0.0 0.00 0.01 0.00 45 1018.0
20260507172029 73 0 0.0 0.0 0.00 0.01 0.00 46 1018.1
20260507171550 73 0 0.0 0.0 0.00 0.01 0.00 44 1018.0
20260507171030 73 0 0.0 0.0 0.00 0.01 0.00 47 1018.1
20260507170530 73 0 0.0 0.0 0.00 0.01 0.00 46 1018.2
20260507170047 73 0 0.0 0.0 0.00 0.01 0.00 45 1018.3
20260507165529 73 0 0.0 0.0 0.00 0.01 0.00 49 1018.2
20260507165029 72 0 0.0 0.0 0.00 0.01 0.00 49 1018.5
20260507164546 72 0 0.0 0.0 0.00 0.01 0.00 50 1018.7
20260507164032 71 0 0.0 0.0 0.00 0.01 0.00 49 1018.9
20260507163531 71 0 0.0 0.0 0.00 0.01 0.00 49 1019.1
20260507163046 71 0 0.0 0.0 0.00 0.01 0.00 49 1019.2
20260507162530 71 0 0.0 0.0 0.00 0.01 0.00 51 1019.3
20260507162031 71 0 0.0 0.0 0.00 0.01 0.00 50 1019.4
20260507161549 70 0 0.0 0.0 0.00 0.01 0.00 54 1019.6
20260507161031 70 0 0.0 0.0 0.00 0.01 0.00 51 1019.5
20260507160531 70 0 0.0 0.0 0.00 0.01 0.00 52 1019.4
20260507160039 70 0 0.0 0.0 0.00 0.01 0.00 52 1019.5
20260507155531 69 0 0.0 0.0 0.00 0.01 0.00 54 1019.4
20260507155031 69 0 0.0 0.0 0.00 0.01 0.00 54 1019.3
20260507154549 68 0 0.0 0.0 0.00 0.01 0.00 54 1019.2
20260507154031 68 0 0.0 0.0 0.00 0.01 0.00 55 1019.2
20260507153530 68 0 0.0 0.0 0.00 0.01 0.00 55 1019.2
20260507153045 68 0 0.0 0.0 0.00 0.01 0.00 59 1019.3
20260507152530 67 0 0.0 0.0 0.00 0.01 0.00 57 1019.3
20260507152031 67 0 0.0 0.0 0.00 0.01 0.00 55 1019.4
20260507151545 67 0 0.0 0.0 0.00 0.01 0.00 57 1019.4
20260507151032 67 0 0.0 0.0 0.00 0.01 0.00 57 1019.5
20260507150530 66 0 0.0 0.0 0.00 0.01 0.00 60 1019.5
20260507150043 65 0 0.0 0.0 0.00 0.01 0.00 60 1019.5
20260507145533 64 0 0.0 0.0 0.00 0.01 0.00 61 1019.6
20260507145030 62 0 0.0 0.0 0.00 0.01 0.00 64 1019.7
20260507144540 61 0 0.0 0.0 0.00 0.01 0.00 63 1019.6
20260507144033 61 0 0.0 0.0 0.00 0.01 0.00 62 1019.7
20260507143530 61 0 0.0 0.0 0.00 0.01 0.00 63 1019.6
20260507143046 60 0 0.0 0.0 0.00 0.01 0.00 64 1019.8
20260507142530 60 0 0.0 0.0 0.00 0.01 0.00 66 1019.8
20260507142030 59 0 0.0 0.0 0.00 0.01 0.00 65 1019.8
20260507141548 59 0 0.0 0.0 0.00 0.01 0.00 64 1019.8
20260507141029 58 0 0.0 0.0 0.00 0.01 0.00 65 1019.8
20260507140530 58 0 0.0 0.0 0.00 0.01 0.00 67 1019.9
20260507140044 58 0 0.0 0.0 0.00 0.01 0.00 72 1019.6
20260507135530 57 0 0.0 0.0 0.00 0.01 0.00 74 1019.6
20260507135032 57 0 0.0 0.0 0.00 0.01 0.00 74 1019.6
20260507134540 57 0 0.0 0.0 0.00 0.01 0.00 76 1019.6
20260507134029 56 0 0.0 0.0 0.00 0.01 0.00 77 1019.6
20260507133530 56 0 0.0 0.0 0.00 0.01 0.00 77 1019.6
20260507133047 56 0 0.0 0.0 0.00 0.01 0.00 77 1019.6
20260507132529 56 0 0.0 0.0 0.00 0.01 0.00 77 1019.8
20260507132031 55 0 0.0 0.0 0.00 0.01 0.00 77 1019.8
20260507131608 55 0 0.0 0.0 0.00 0.01 0.00 77 1019.9
20260507131030 55 0 0.0 0.0 0.00 0.01 0.00 77 1019.9
20260507130531 54 0 0.0 0.0 0.00 0.01 0.00 77 1019.9
20260507130046 54 0 0.0 0.0 0.00 0.01 0.00 77 1019.9
20260507125530 53 0 0.0 0.0 0.00 0.01 0.00 76 1019.8
20260507125030 53 0 0.0 0.0 0.00 0.01 0.00 75 1019.9
20260507124544 53 0 0.0 0.0 0.00 0.01 0.00 74 1019.8
20260507124030 53 0 0.0 0.0 0.00 0.01 0.00 74 1019.8
20260507123530 52 0 0.0 0.0 0.00 0.01 0.00 73 1020.1
20260507123043 52 0 0.0 0.0 0.00 0.01 0.00 72 1020.2
20260507122529 52 0 0.0 0.0 0.00 0.01 0.00 70 1020.3
20260507122030 52 0 0.0 0.0 0.00 0.01 0.00 69 1020.2
20260507121539 51 0 0.0 0.0 0.00 0.01 0.00 68 1020.2
20260507121030 51 0 0.0 0.0 0.00 0.01 0.00 68 1020.2
20260507120530 51 0 0.0 0.0 0.00 0.01 0.00 68 1019.9
20260507120046 51 0 0.0 0.0 0.00 0.01 0.00 68 1020.0
20260507115530 51 0 0.0 0.0 0.00 0.01 0.00 68 1020.1
20260507115035 52 0 0.0 0.0 0.00 0.01 0.00 67 1020.1
20260507114546 52 0 0.0 0.0 0.00 0.01 0.00 67 1020.1
20260507114030 52 0 0.0 0.0 0.00 0.01 0.00 67 1020.1
20260507113532 52 0 0.0 0.0 0.00 0.01 0.00 67 1019.9
20260507113041 52 0 0.0 0.0 0.00 0.01 0.00 67 1019.8
20260507112531 52 0 0.0 0.0 0.00 0.01 0.00 67 1019.8
20260507112030 52 0 0.0 0.0 0.00 0.01 0.00 67 1019.6
20260507111540 52 0 0.0 0.0 0.00 0.01 0.00 67 1019.5
20260507111029 52 0 0.0 0.0 0.00 0.01 0.00 66 1019.4
20260507110529 52 0 0.0 0.0 0.00 0.01 0.00 66 1019.4
20260507110047 52 0 0.0 0.0 0.00 0.01 0.00 66 1019.3
20260507105530 52 0 0.0 0.0 0.00 0.01 0.00 66 1019.2
20260507105030 52 0 0.0 0.0 0.00 0.01 0.00 66 1019.1
20260507104548 52 0 0.0 0.0 0.00 0.01 0.00 66 1018.9
20260507104030 52 0 0.0 0.0 0.00 0.01 0.00 66 1018.8
20260507103529 52 0 0.0 0.0 0.00 0.01 0.00 66 1018.7
20260507103045 53 0 0.0 0.0 0.00 0.01 0.00 66 1018.7
20260507102529 53 0 0.0 0.0 0.00 0.01 0.00 66 1018.5
20260507102030 53 0 0.0 0.0 0.00 0.01 0.00 66 1018.4
20260507101541 53 0 0.0 0.0 0.00 0.01 0.00 66 1018.3
20260507101030 53 0 0.0 0.0 0.00 0.01 0.00 66 1018.2
20260507100533 53 0 0.0 0.0 0.00 0.01 0.00 65 1018.2
20260507100045 53 0 0.0 0.0 0.00 0.01 0.00 65 1018.1
20260507095530 53 0 0.0 0.0 0.00 0.01 0.00 65 1017.9
20260507095029 54 0 0.0 0.0 0.00 0.01 0.00 65 1017.8
20260507094540 54 0 0.0 0.0 0.00 0.01 0.00 65 1017.8
20260507094030 54 0 0.0 0.0 0.00 0.01 0.00 65 1017.8
20260507093529 54 0 0.0 0.0 0.00 0.01 0.00 65 1017.8
20260507093052 54 0 0.0 0.0 0.00 0.01 0.00 65 1017.7
20260507092529 54 0 0.0 0.0 0.00 0.01 0.00 65 1017.5
20260507092029 54 0 0.0 0.0 0.00 0.01 0.00 65 1017.3
20260507091544 54 0 0.0 0.0 0.00 0.01 0.00 65 1017.3
20260507091030 55 0 0.0 0.0 0.00 0.01 0.00 64 1017.2
20260507090529 55 0 0.0 0.0 0.00 0.01 0.00 64 1017.3
20260507090041 55 0 0.0 0.0 0.00 0.01 0.00 64 1017.5
20260507085530 55 0 0.0 0.0 0.00 0.01 0.00 64 1017.6
20260507085029 55 0 0.0 0.0 0.00 0.01 0.00 64 1017.7
20260507084551 55 0 0.0 0.0 0.00 0.01 0.00 64 1017.7
20260507084029 55 0 0.0 0.0 0.00 0.01 0.00 64 1017.7
20260507083529 55 0 0.0 0.0 0.00 0.01 0.00 64 1017.5
20260507083039 55 0 0.0 0.0 0.00 0.01 0.00 64 1017.4
20260507082530 55 0 0.0 0.0 0.00 0.01 0.00 64 1017.2
20260507082029 55 0 0.0 0.0 0.00 0.01 0.00 65 1017.1
20260507081545 55 0 0.0 0.0 0.00 0.01 0.00 64 1017.1
20260507081029 55 0 0.0 0.0 0.00 0.01 0.00 64 1017.4
20260507080530 55 0 0.0 0.0 0.00 0.01 0.00 64 1017.4
20260507080045 55 0 0.0 0.0 0.00 0.01 0.00 63 1017.5
20260507075529 55 0 0.0 0.0 0.00 0.01 0.00 63 1017.4
20260507075029 55 0 0.0 0.0 0.00 0.01 0.00 63 1017.1
20260507074542 56 0 0.0 0.0 0.00 0.01 0.00 62 1017.0
20260507074029 56 0 0.0 0.0 0.00 0.01 0.00 62 1017.1
20260507073529 56 0 0.0 0.0 0.00 0.01 0.00 62 1017.0
20260507073048 56 0 0.0 0.0 0.00 0.01 0.00 62 1016.9
20260507072530 56 0 0.0 0.0 0.00 0.01 0.00 62 1016.5
20260507072029 56 0 0.0 0.0 0.00 0.01 0.00 62 1016.5
20260507071600 56 0 0.0 0.0 0.00 0.01 0.00 62 1016.3
20260507071028 56 0 0.0 0.0 0.00 0.01 0.00 62 1016.2
20260507070529 56 0 0.0 0.0 0.00 0.01 0.00 62 1016.2
20260507070046 56 0 0.0 0.0 0.00 0.01 0.00 62 1016.1
20260507065533 57 0 0.0 0.0 0.00 0.01 0.00 62 1016.1
20260507065029 57 0 0.0 0.0 0.00 0.01 0.00 62 1016.1
20260507064545 57 0 0.0 0.0 0.00 0.01 0.00 62 1016.2
20260507064031 57 0 0.0 0.0 0.00 0.01 0.00 62 1016.3
20260507063529 57 0 0.0 0.0 0.00 0.01 0.00 62 1016.3
20260507063045 57 0 0.0 0.0 0.00 0.01 0.00 62 1016.2
20260507062530 57 0 0.0 0.0 0.00 0.01 0.00 61 1016.5
20260507062029 57 0 0.0 0.0 0.00 0.01 0.00 61 1016.6
20260507061541 58 0 0.0 0.0 0.00 0.01 0.00 61 1016.5
20260507061028 58 0 0.0 0.0 0.00 0.01 0.00 60 1016.4
20260507060528 58 0 0.0 0.0 0.00 0.01 0.00 60 1016.4
20260507060049 58 0 0.0 0.0 0.00 0.01 0.00 60 1016.5
20260507055529 58 0 0.0 0.0 0.00 0.01 0.00 60 1016.5
20260507055029 58 0 0.0 0.0 0.00 0.01 0.00 60 1016.5
20260507054546 58 0 0.0 0.0 0.00 0.01 0.00 60 1016.4
20260507054029 58 0 0.0 0.0 0.00 0.01 0.00 60 1016.5
20260507053529 58 0 0.0 0.0 0.00 0.01 0.00 60 1016.4
20260507053111 58 0 0.0 0.0 0.00 0.01 0.00 60 1016.4
20260507052529 58 0 0.0 0.0 0.00 0.01 0.00 60 1016.4
20260507052029 58 0 0.0 0.0 0.00 0.01 0.00 59 1016.4
20260507051544 59 0 0.0 0.0 0.00 0.01 0.00 59 1016.3
20260507051029 59 0 0.0 0.0 0.00 0.01 0.00 59 1016.4
20260507050528 59 0 0.0 0.0 0.00 0.01 0.00 59 1016.5
20260507050048 59 0 0.0 0.0 0.00 0.01 0.00 60 1016.5
20260507045529 59 0 0.0 0.0 0.00 0.01 0.01 60 1016.5
20260507045028 59 0 0.0 0.0 0.00 0.01 0.01 60 1016.5
20260507044547 59 0 0.0 0.0 0.00 0.01 0.01 60 1016.6
20260507044028 59 0 0.0 0.0 0.00 0.01 0.01 60 1016.5
20260507043529 59 0 0.0 0.0 0.00 0.01 0.01 60 1016.6
20260507043047 59 0 0.0 0.0 0.00 0.01 0.01 60 1016.7
20260507042533 59 0 0.0 0.0 0.00 0.01 0.01 60 1016.8
20260507042029 59 0 0.0 0.0 0.00 0.01 0.01 60 1016.8
20260507041547 59 0 0.0 0.0 0.00 0.01 0.01 61 1016.7
20260507041030 59 0 0.0 0.0 0.00 0.01 0.01 61 1016.7
20260507040530 59 0 0.0 0.0 0.00 0.01 0.01 61 1016.7
20260507040045 59 0 0.0 0.0 0.00 0.01 0.01 62 1016.8
20260507035530 59 0 0.0 0.0 0.00 0.01 0.01 62 1016.9
20260507035030 59 0 0.0 0.0 0.00 0.01 0.01 62 1016.8
20260507034540 59 0 0.0 0.0 0.00 0.01 0.01 62 1017.0
20260507034031 59 0 0.0 0.0 0.00 0.01 0.01 62 1017.0
20260507033530 59 0 0.0 0.0 0.00 0.01 0.01 63 1017.0
20260507033050 59 0 0.0 0.0 0.00 0.01 0.01 63 1017.0
20260507032530 59 0 0.0 0.0 0.00 0.01 0.01 63 1016.9
20260507032030 59 0 0.0 0.0 0.00 0.01 0.01 63 1016.8
20260507031539 59 0 0.0 0.0 0.00 0.01 0.01 63 1016.7
20260507031029 59 0 0.0 0.0 0.00 0.01 0.01 63 1016.7
20260507030531 59 0 0.0 0.0 0.00 0.01 0.01 63 1016.5
20260507030047 59 0 0.0 0.0 0.00 0.01 0.01 63 1016.5
20260507025530 59 0 0.0 0.0 0.00 0.01 0.01 63 1016.4
20260507025030 59 0 0.0 0.0 0.00 0.01 0.01 63 1016.3
20260507024545 59 0 0.0 0.0 0.00 0.01 0.01 63 1016.2
20260507024032 59 0 0.0 0.0 0.00 0.01 0.01 64 1016.1
20260507023531 59 0 0.0 0.0 0.00 0.01 0.01 63 1016.0
20260507023041 59 0 0.0 0.0 0.00 0.01 0.01 64 1015.9
20260507022531 59 0 0.0 0.0 0.00 0.01 0.01 64 1015.8
20260507022031 59 0 0.0 0.0 0.00 0.01 0.01 64 1015.7
20260507021543 59 0 0.0 0.0 0.00 0.01 0.01 64 1015.7
20260507021031 59 0 0.0 0.0 0.00 0.01 0.01 64 1015.6
20260507020532 59 0 0.0 0.0 0.00 0.01 0.01 64 1015.5
20260507020042 59 0 0.0 0.0 0.00 0.01 0.01 65 1015.6
20260507015531 59 0 0.0 0.0 0.00 0.01 0.01 65 1015.4
20260507015028 59 0 0.0 0.0 0.00 0.01 0.01 64 1015.2
20260507014551 59 0 0.0 0.0 0.00 0.01 0.01 64 1015.0
20260507014028 59 0 0.0 0.0 0.00 0.01 0.01 65 1014.9
20260507013527 59 0 0.0 0.0 0.00 0.01 0.01 64 1014.9
20260507013039 59 0 0.0 0.0 0.00 0.01 0.01 65 1014.9
20260507012531 59 0 0.0 0.0 0.00 0.01 0.01 64 1014.6
20260507012031 59 0 0.0 0.0 0.01 0.01 0.01 64 1014.5
20260507011541 59 0 0.0 0.0 0.01 0.01 0.01 64 1014.4
20260507011030 60 0 0.0 0.0 0.01 0.01 0.01 64 1014.3
20260507010530 60 0 0.0 0.0 0.01 0.01 0.01 64 1014.2
20260507010051 60 0 0.0 0.0 0.01 0.01 0.01 64 1014.3
20260507005532 60 0 0.0 0.0 0.01 0.01 0.01 64 1014.0
20260507005028 60 0 0.0 0.0 0.01 0.01 0.01 63 1013.9
20260507004549 60 0 0.0 0.0 0.01 0.01 0.01 63 1013.9
20260507004028 61 0 0.0 0.0 0.01 0.01 0.01 63 1013.9
20260507003531 61 0 0.0 0.0 0.01 0.01 0.01 63 1014.0
20260507003040 61 0 0.0 0.0 0.01 0.01 0.01 62 1014.2
20260507002531 61 0 0.0 0.0 0.01 0.01 0.01 63 1014.1
20260507002031 62 0 0.0 0.0 0.00 0.00 0.00 62 1014.3
20260507001547 62 0 0.0 0.0 0.00 0.00 0.00 61 1014.3
20260507001030 62 0 0.0 0.0 0.00 0.00 0.00 60 1014.1
20260507000531 62 0 0.0 0.0 0.00 0.00 0.00 59 1014.0
20260507000047 63 0 0.0 0.0 0.00 0.00 0.00 58 1013.9
20260506235533 63 0 0.0 0.0 0.00 0.00 0.00 58 1013.8
20260506235030 63 0 0.0 0.0 0.00 0.00 0.00 58 1013.6
20260506234544 63 0 0.0 0.0 0.00 0.00 0.00 57 1013.8
20260506234031 63 0 0.0 0.0 0.00 0.00 0.00 57 1013.7
20260506233532 63 0 0.0 0.0 0.00 0.00 0.00 57 1013.6
20260506233041 63 0 0.0 0.0 0.00 0.00 0.00 58 1013.5
20260506232527 63 0 0.0 0.0 0.00 0.00 0.00 57 1013.5
20260506232031 63 0 0.0 0.0 0.00 0.00 0.00 58 1013.5
20260506231540 63 0 0.0 0.0 0.00 0.00 0.00 58 1013.2
20260506231031 63 0 0.0 0.0 0.00 0.00 0.00 57 1013.2
20260506230531 63 0 0.0 0.0 0.00 0.00 0.00 57 1013.3
20260506230047 63 0 0.0 0.0 0.00 0.00 0.00 57 1013.6
20260506225528 63 0 0.0 0.0 0.00 0.00 0.00 57 1013.4
20260506225030 63 0 0.0 0.0 0.00 0.00 0.00 57 1013.3
20260506224544 63 0 0.0 0.0 0.00 0.00 0.00 57 1013.5
20260506224030 63 0 0.0 0.0 0.00 0.00 0.00 56 1013.5
20260506223528 64 0 0.0 0.0 0.00 0.00 0.00 56 1013.5
20260506223046 64 0 0.0 0.0 0.00 0.00 0.00 57 1013.4
20260506222533 64 0 0.0 0.0 0.00 0.00 0.00 56 1013.4
20260506222028 64 0 0.0 0.0 0.00 0.00 0.00 57 1013.2
20260506221545 64 0 0.0 0.0 0.00 0.00 0.00 56 1013.2
20260506221031 64 0 0.0 0.0 0.00 0.00 0.00 57 1012.9
20260506220529 64 0 0.0 0.0 0.00 0.00 0.00 56 1012.9
20260506220053 64 0 0.0 0.0 0.00 0.00 0.00 57 1013.2
20260506215531 64 0 0.0 0.0 0.00 0.00 0.00 57 1013.0
20260506215031 64 0 0.0 0.0 0.00 0.00 0.00 57 1013.0
20260506214550 64 0 0.0 0.0 0.00 0.00 0.00 57 1013.2
20260506214029 64 0 0.0 0.0 0.00 0.00 0.00 56 1013.3
20260506213528 64 0 0.0 0.0 0.00 0.00 0.00 55 1013.3
20260506213045 64 0 0.0 0.0 0.00 0.00 0.00 56 1013.0
20260506212530 64 0 0.0 0.0 0.00 0.00 0.00 55 1013.1
20260506212030 64 0 0.0 0.0 0.00 0.00 0.00 56 1013.1
20260506211545 64 0 0.0 0.0 0.00 0.00 0.00 56 1013.1
20260506211031 64 0 0.0 0.0 0.00 0.00 0.00 56 1013.2
20260506210529 64 0 0.0 0.0 0.00 0.00 0.00 55 1013.3
20260506210056 65 0 0.0 0.0 0.00 0.00 0.00 56 1013.3
20260506205529 65 0 0.0 0.0 0.00 0.00 0.00 56 1013.2
20260506205033 65 0 0.0 0.0 0.00 0.00 0.00 55 1013.2
20260506204548 64 0 0.0 0.0 0.00 0.00 0.00 57 1013.1
20260506204030 64 0 0.0 0.0 0.00 0.00 0.00 56 1013.3
20260506203529 64 0 0.0 0.0 0.00 0.00 0.00 57 1013.4
20260506203048 63 0 0.0 0.0 0.00 0.00 0.00 58 1013.4
20260506202529 62 0 0.0 0.0 0.00 0.00 0.00 58 1013.7
20260506202029 62 0 0.0 0.0 0.00 0.00 0.00 58 1013.8
20260506201540 61 0 0.0 0.0 0.00 0.00 0.00 58 1013.9
20260506201029 61 0 0.0 0.0 0.00 0.00 0.00 58 1013.9
20260506200528 61 0 0.0 0.0 0.00 0.00 0.00 59 1014.0
20260506200049 60 0 0.0 0.0 0.00 0.00 0.00 59 1014.2
20260506195531 60 0 0.0 0.0 0.00 0.00 0.00 59 1014.2
20260506195030 60 0 0.0 0.0 0.00 0.00 0.00 60 1014.4
20260506194542 59 0 0.0 0.0 0.00 0.00 0.00 60 1014.2
20260506194031 59 0 0.0 0.0 0.00 0.00 0.00 60 1014.2
20260506193527 59 0 0.0 0.0 0.00 0.00 0.00 60 1014.3
20260506193039 59 0 0.0 0.0 0.00 0.00 0.00 61 1014.2
20260506192528 58 0 0.0 0.0 0.00 0.00 0.00 60 1014.3
20260506192031 58 0 0.0 0.0 0.00 0.00 0.00 60 1014.3
20260506191552 58 0 0.0 0.0 0.00 0.00 0.00 60 1014.4
20260506191028 58 0 0.0 0.0 0.00 0.00 0.00 60 1014.3
20260506190531 58 0 0.0 0.0 0.00 0.00 0.00 60 1014.6
20260506190046 58 0 0.0 0.0 0.00 0.00 0.00 60 1014.6
20260506185528 59 0 0.0 0.0 0.00 0.00 0.00 60 1014.6
20260506185030 59 0 0.0 0.0 0.00 0.00 0.00 60 1014.7
20260506184543 59 0 0.0 0.0 0.00 0.00 0.00 60 1014.7
20260506184030 59 0 0.0 0.0 0.00 0.00 0.00 60 1014.7
20260506183531 59 0 0.0 0.0 0.00 0.00 0.00 60 1014.6
20260506183045 59 0 0.0 0.0 0.00 0.00 0.00 60 1014.5
20260506182529 59 0 0.0 0.0 0.00 0.00 0.00 60 1014.5
20260506182032 59 0 0.0 0.0 0.00 0.00 0.00 60 1014.1
20260506181549 58 0 0.0 0.0 0.00 0.00 0.00 60 1014.3
20260506181031 58 0 0.0 0.0 0.00 0.00 0.00 60 1014.3
20260506180529 59 0 0.0 0.0 0.00 0.00 0.00 60 1014.5